Date,TemperatureHighF,TemperatureAvgF,TemperatureLowF,DewpointHighF,DewpointAvgF,DewpointLowF,HumidityHigh,HumidityAvg,HumidityLow,PressureMaxIn,PressureMinIn,WindSpeedMaxMPH,WindSpeedAvgMPH,GustSpeedMaxMPH,PrecipitationSumIn
2013-1-1,34.4,23.4,10.4,13.7,5.2,-18.0,61,47,1,29.79,29.55,13,5,13,0.00
2013-1-2,23.8,13.7,2.2,9.5,-6.5,-25.3,67,43,7,30.03,29.73,9,3,9,0.00
2013-1-3,17.6,7.6,-4.7,6.3,-6.8,-19.6,69,55,19,30.03,29.74,5,1,5,0.00
2013-1-4,36.4,29.1,15.7,23.1,7.4,-29.4,60,44,1,29.75,29.64,12,4,12,0.01
2013-1-5,34.6,30.8,24.8,21.2,15.6,9.7,62,53,41,30.05,29.72,14,5,14,0.01
2013-1-6,37.8,30.6,24.5,21.3,-7.3,-23.9,53,20,1,29.94,29.69,9,1,9,0.03
2013-1-7,35.6,25.9,14.6,14.5,-1.9,-27.3,59,34,1,30.18,29.78,9,2,9,0.01
2013-1-8,38.0,20.5,8.8,26.5,-2.0,-23.5,64,39,17,30.16,30.04,2,0,2,0.00
2013-1-9,42.8,26.8,14.9,29.9,-1.2,-31.1,63,33,5,30.15,29.76,18,4,18,0.00
2013-1-10,40.0,33.2,24.1,28.4,20.8,6.0,66,60,45,30.35,29.98,17,3,17,0.00
2013-1-11,33.7,29.6,23.8,17.7,-3.4,-18.0,54,25,1,30.32,29.87,6,2,6,0.14
2013-1-12,39.4,35.6,33.5,-12.6,-15.7,-17.4,1,1,1,29.92,29.87,5,2,5,0.00
2013-1-13,40.1,37.6,34.9,-12.1,-14.1,-16.2,1,1,1,29.90,29.71,10,2,10,0.00
2013-1-14,42.8,37.4,32.0,24.2,4.6,-14.4,57,28,1,30.12,29.65,12,3,12,0.01
2013-1-15,33.3,31.2,29.0,19.2,14.7,5.8,57,50,37,30.15,30.01,3,0,3,0.00
2013-1-16,31.0,28.7,24.3,7.1,-15.2,-24.6,38,9,1,30.01,29.60,0,0,0,0.00
2013-1-17,34.7,27.6,19.8,12.4,-0.3,-24.4,55,33,1,29.97,29.62,6,1,6,0.00
2013-1-18,21.4,16.7,8.8,7.7,3.0,-4.9,57,54,47,30.21,29.91,3,0,3,0.00
2013-1-19,45.7,34.3,21.4,27.6,17.8,7.7,57,51,43,30.00,29.49,9,2,9,0.02
2013-1-20,45.7,34.6,18.2,27.9,10.1,-29.2,55,39,1,29.83,29.27,20,7,20,0.03
2013-1-21,23.6,18.8,13.5,-1.0,-24.8,-32.3,34,8,1,29.84,29.60,6,2,6,0.00
2013-1-22,16.0,11.4,6.8,2.6,-16.5,-35.9,57,31,1,29.93,29.59,17,5,17,0.00
2013-1-23,6.8,0.9,-7.4,-5.2,-10.3,-17.6,64,59,43,30.02,29.90,14,2,14,0.00
2013-1-24,10.4,0.2,-11.3,-1.4,-12.4,-20.9,64,56,23,30.20,29.95,17,4,17,0.00
2013-1-25,18.0,9.6,2.5,6.7,-1.9,-7.0,64,59,48,30.22,29.87,11,1,11,0.00
2013-1-26,16.7,8.5,2.2,5.4,-4.9,-19.3,63,54,31,30.15,29.86,15,2,15,0.00
2013-1-27,22.0,12.0,2.3,6.8,-2.2,-22.0,63,53,26,30.33,30.14,10,2,10,0.00
2013-1-28,27.0,21.0,16.4,10.5,-8.3,-27.1,64,32,1,30.26,29.73,10,1,10,0.00
2013-1-29,34.7,31.3,27.0,-16.4,-19.0,-22.5,1,1,1,29.92,29.75,8,1,9,0.49
2013-1-30,50.4,40.6,34.6,-4.2,-11.8,-16.6,1,1,1,29.75,29.01,12,2,12,0.52
2013-1-31,49.0,44.8,38.0,17.6,-6.8,-13.8,43,3,1,29.01,28.74,25,5,25,0.23
2013-2-1,25.4,21.1,17.1,13.8,7.3,-16.1,64,56,20,29.95,29.42,16,8,18,0.00
2013-2-2,24.3,17.8,12.6,12.0,6.3,-1.4,64,60,52,29.98,29.81,7,2,7,0.00
2013-2-3,26.8,18.4,8.1,15.8,3.8,-18.7,65,54,16,29.81,29.55,5,1,5,0.00
2013-2-4,21.6,18.0,11.9,6.7,-11.5,-29.7,56,29,1,29.72,29.57,10,4,10,0.00
2013-2-5,25.2,15.3,7.0,12.2,-2.3,-14.6,62,46,28,29.80,29.66,4,1,4,0.02
2013-2-6,28.3,22.1,14.8,15.5,4.1,-22.9,64,48,1,30.15,29.67,17,5,17,0.00
2013-2-7,26.3,17.3,7.9,10.2,4.5,-4.5,64,57,48,30.31,30.10,11,2,11,0.00
2013-2-8,28.6,25.1,20.7,12.8,-1.5,-24.4,62,36,1,30.09,29.62,8,3,8,0.00
2013-2-9,24.8,17.1,4.7,7.6,-2.2,-24.6,64,46,1,30.19,29.68,12,5,12,0.00
2013-2-10,28.1,16.1,2.3,13.5,2.8,-11.2,64,56,43,30.27,29.99,6,2,6,0.02
2013-2-11,22.3,21.9,21.4,10.9,8.9,7.7,61,57,55,29.99,29.84,6,2,6,0.00
2013-2-12,34.9,34.7,34.6,18.3,15.0,13.1,51,44,41,29.64,29.59,18,12,18,0.00
2013-2-13,38.7,36.8,35.1,24.2,22.7,21.6,58,56,54,29.59,29.52,3,2,3,0.00
2013-2-14,32.6,25.7,18.7,19.3,7.8,-6.6,60,47,29,29.71,29.61,3,1,3,0.00
2013-2-16,29.3,26.5,22.5,14.1,11.2,8.7,58,52,45,29.75,29.70,9,4,9,0.00
2013-2-18,21.1,10.8,6.7,7.8,1.4,-1.7,70,66,56,30.04,29.80,13,8,13,0.00
2013-2-19,30.8,30.1,29.3,20.0,-4.1,-20.0,64,24,1,29.56,29.44,2,1,2,0.00
2013-2-20,26.3,25.2,21.2,12.6,11.9,2.6,61,57,44,29.69,29.57,7,6,7,0.00
2013-2-21,21.2,17.5,15.1,5.4,0.7,-20.3,63,50,16,30.20,29.68,8,3,8,0.00
2013-2-22,32.6,32.4,32.2,20.9,20.6,20.4,62,61,61,30.03,29.98,0,0,0,0.00
2013-2-23,35.5,34.1,33.3,13.2,-9.0,-17.4,40,11,1,29.85,29.66,0,0,0,0.16
2013-2-24,33.8,32.0,30.2,15.1,-7.7,-19.8,48,16,1,29.74,29.61,3,0,3,0.02
2013-2-25,38.0,35.8,32.0,16.8,10.0,-12.8,43,35,14,30.02,29.93,4,1,4,0.00
2013-2-26,37.3,29.8,22.0,21.3,-3.4,-26.5,52,26,1,30.07,29.77,2,0,2,0.00
2013-2-27,38.9,34.8,31.1,-13.0,-16.2,-19.1,1,1,1,29.68,29.36,2,0,2,0.46
2013-2-28,38.5,37.0,34.9,1.6,-13.4,-16.2,21,3,1,29.39,29.36,2,0,2,0.01
2013-3-1,36.9,33.6,28.8,11.6,-0.0,-17.2,36,24,1,29.63,29.51,4,2,4,0.00
2013-3-2,28.8,26.8,25.6,-0.1,-6.7,-22.9,32,23,6,29.62,29.60,3,1,3,0.00
2013-3-3,27.5,24.7,21.6,8.4,-1.8,-26.7,45,33,6,29.60,29.54,11,8,11,0.00
2013-3-4,26.6,25.7,24.1,-5.8,-17.9,-24.6,24,10,1,29.69,29.61,13,9,13,0.00
2013-3-5,39.2,32.7,26.5,22.6,12.0,-7.5,51,43,22,29.85,29.82,6,2,6,0.00
2013-3-6,40.7,39.7,38.7,22.8,20.4,10.6,51,46,31,29.86,29.84,10,5,10,0.00
2013-3-7,37.8,36.5,34.4,22.6,14.0,-11.1,54,43,14,29.94,29.92,6,3,6,0.00
2013-3-8,41.4,35.3,29.0,24.1,10.0,-20.8,50,37,1,30.13,29.98,11,7,11,0.11
2013-3-9,48.2,36.1,25.9,27.3,10.7,-23.2,52,37,2,30.16,30.09,8,3,8,0.00
2013-3-11,45.4,43.4,41.4,24.0,11.0,-2.4,43,27,16,29.77,29.73,9,3,9,0.00
2013-3-12,39.2,37.5,35.1,-12.8,-14.2,-16.1,1,1,1,29.68,29.56,7,4,7,0.33
2013-3-13,40.7,35.5,30.4,22.4,-1.1,-19.6,49,21,1,29.69,29.58,11,3,11,0.00
2013-3-14,24.1,21.9,19.8,6.6,4.2,-5.3,54,47,27,29.73,29.67,19,12,19,0.00
2013-3-15,35.3,27.7,17.6,15.9,-5.9,-20.7,55,25,1,29.75,29.43,14,4,14,0.02
2013-3-16,28.6,28.6,28.6,-21.0,-21.0,-21.0,5,5,5,29.59,29.59,3,3,3,0.00
2013-3-17,31.7,27.2,20.3,13.7,7.8,-13.3,54,44,20,30.13,29.89,12,6,12,0.00
2013-3-18,33.3,25.7,13.5,11.6,7.2,-3.1,55,46,37,30.22,29.95,11,4,11,0.00
2013-3-19,36.4,34.9,34.0,-15.1,-16.3,-16.9,1,1,1,29.51,29.48,4,3,4,0.02
2013-3-20,33.5,30.2,26.1,14.2,1.3,-19.8,45,30,2,29.58,29.56,10,6,10,0.01
2013-3-22,29.2,28.1,27.7,-20.7,-21.5,-21.8,10,2,1,29.62,29.59,6,4,6,0.00
2013-3-23,37.1,33.5,31.7,19.7,13.7,7.9,50,44,36,29.71,29.63,12,8,12,0.02
2013-3-24,41.6,34.0,29.5,23.8,11.6,0.5,52,40,28,29.71,29.55,5,1,5,0.02
2013-3-25,44.8,37.4,28.8,27.4,18.4,4.9,52,46,35,29.56,29.34,7,2,7,0.00
2013-3-26,34.4,33.3,32.4,7.7,2.9,-0.4,35,28,23,29.50,29.45,3,2,3,0.00
2013-3-27,43.4,38.3,34.9,26.5,14.9,3.2,51,39,26,29.72,29.70,12,9,12,0.00
2013-3-30,51.5,50.3,48.6,28.3,26.5,25.6,45,40,38,29.93,29.88,9,5,9,0.00
2013-3-31,55.1,44.0,39.6,34.9,4.2,-12.5,54,20,1,29.67,29.49,11,2,11,0.07
2013-4-1,39.6,35.2,28.1,22.6,7.1,-15.7,55,34,1,29.68,29.42,22,8,22,0.10
2013-4-2,33.3,27.8,24.1,18.4,-7.5,-24.6,54,21,1,29.77,29.66,25,8,25,0.00
2013-9-2,70.9,61.2,60.1,41.1,4.5,3.4,34,1,1,29.04,28.98,22,0,22,0.24
2013-9-3,68.9,66.6,61.4,52.6,44.6,4.4,56,48,1,29.12,29.04,10,2,10,0.00
2013-9-4,75.6,70.7,63.9,56.7,50.2,24.0,56,49,23,29.24,29.11,10,2,10,0.00
2013-9-5,65.9,62.3,57.6,46.7,36.6,1.4,58,42,1,29.36,29.21,8,2,9,0.00
2013-9-6,67.1,64.8,61.6,45.9,43.1,40.0,49,45,42,29.52,29.35,9,2,9,0.02
2013-9-8,64.8,49.9,47.2,45.2,34.6,30.6,60,56,49,29.43,29.39,2,0,2,0.02
2013-9-9,66.8,54.7,45.9,49.4,35.2,8.5,57,48,21,29.51,29.41,5,1,5,0.00
2013-9-10,81.2,75.6,60.1,48.6,19.3,3.4,52,8,1,29.43,29.25,4,1,5,0.78
2013-9-11,89.8,85.2,74.3,70.0,52.5,14.3,53,36,1,29.34,29.21,9,2,11,0.00
2013-9-12,78.8,70.8,64.6,55.0,20.1,6.9,44,11,1,29.07,28.98,5,1,5,0.01
2013-9-13,60.5,57.0,52.2,42.8,33.3,2.1,53,42,3,29.19,29.04,4,2,4,0.00
2013-9-16,59.0,53.3,44.1,43.6,34.8,5.0,60,52,12,29.63,29.41,6,2,6,0.01
2013-9-17,58.9,45.8,43.2,42.2,26.4,23.2,54,46,45,29.70,29.64,2,0,2,0.00
2013-9-20,65.5,61.4,59.8,48.4,35.4,22.4,54,39,22,29.21,29.20,4,1,4,0.00
2013-9-21,75.6,63.9,54.4,57.2,27.4,-1.1,56,28,1,29.21,28.90,5,1,5,0.01
2013-9-22,59.4,55.9,51.5,40.7,16.3,-0.7,59,24,1,29.17,28.92,10,3,10,0.00
2013-9-23,48.6,46.1,43.2,34.9,25.1,1.9,59,47,18,29.36,29.33,3,2,3,0.00
2013-9-24,61.2,56.0,50.0,43.4,40.0,35.4,57,55,52,29.33,29.24,8,3,8,0.00
2013-9-28,69.5,58.1,51.5,51.1,33.3,1.2,57,42,13,29.53,29.53,1,0,1,0.00
2013-9-29,72.5,70.4,66.6,54.4,52.7,50.0,55,54,53,29.37,29.33,4,2,4,0.00
2013-10-2,73.4,72.2,70.6,56.2,52.8,45.7,55,51,41,29.23,29.21,11,6,11,0.00
2013-10-3,72.0,70.2,68.0,51.8,49.6,46.5,51,48,43,29.35,29.32,6,2,6,0.00
2013-10-4,60.7,59.0,55.3,3.8,2.4,-0.4,1,1,1,29.34,29.32,3,1,3,0.00
2013-10-6,60.7,58.4,56.2,3.8,2.0,0.4,1,1,1,29.31,29.27,8,2,8,0.00
2013-10-13,56.7,56.3,55.8,41.4,40.6,39.8,57,56,55,29.60,29.59,2,1,2,0.00
2013-10-14,55.8,55.3,54.7,38.9,38.1,37.4,53,52,52,29.60,29.59,1,1,1,0.00
2013-10-15,60.5,58.6,56.5,39.5,24.6,12.9,46,28,18,29.37,29.35,2,1,2,0.00
2013-10-20,58.5,54.8,51.7,42.9,37.3,35.6,56,52,47,29.24,29.18,9,5,9,0.11
2013-10-21,66.4,60.3,46.1,42.0,37.4,-7.5,57,44,9,29.34,29.19,8,4,8,0.00
2013-10-22,50.9,50.1,48.1,36.6,36.1,34.9,60,59,57,29.07,29.05,10,6,10,0.00
2013-10-23,47.0,42.1,37.3,33.0,23.8,16.2,58,49,38,29.04,28.98,2,0,2,0.00
2013-10-25,45.2,41.7,39.8,30.8,19.7,10.5,58,42,28,29.42,29.39,7,2,7,0.01
2013-10-26,47.0,45.9,40.7,31.5,28.9,5.4,58,52,23,29.41,29.09,14,4,14,0.00
2013-10-27,46.6,41.8,38.7,33.0,27.6,19.7,61,57,45,29.34,29.22,8,2,8,0.00
2013-10-29,34.0,34.0,34.0,22.3,22.3,22.3,62,62,62,29.60,29.60,0,0,0,0.00
2013-10-30,52.7,40.9,34.0,37.9,27.4,21.7,62,59,46,29.60,29.46,3,0,3,0.02
2013-10-31,43.6,42.9,41.9,-9.5,-10.0,-10.7,1,1,1,29.20,29.17,5,4,5,0.04
2013-11-1,68.9,61.5,49.7,50.6,43.1,38.0,64,52,37,28.97,28.64,13,7,13,0.02
2013-11-2,53.3,48.2,41.6,40.1,27.7,-9.4,62,48,7,29.14,28.92,9,4,9,0.01
2013-11-3,41.6,37.5,31.5,24.9,21.4,18.8,61,52,45,29.68,29.14,9,5,9,0.00
2013-11-4,40.7,38.3,34.9,22.9,22.0,21.2,60,52,47,29.94,29.88,4,2,4,0.00
2013-11-5,51.7,50.1,46.6,35.0,33.9,32.1,57,54,51,29.77,29.75,6,3,6,0.00
2013-11-6,61.6,60.3,57.6,45.7,44.4,42.9,58,56,53,29.42,29.33,6,4,6,0.00
2013-11-7,47.9,46.7,46.1,30.7,8.3,-7.0,55,23,1,29.16,29.13,12,7,12,0.02
2013-11-9,41.2,39.8,39.2,28.8,27.4,26.6,62,61,60,29.29,29.16,3,1,3,0.00
2013-11-10,47.3,44.4,40.7,33.8,25.9,7.6,61,50,21,29.14,29.04,16,9,16,0.04
2013-11-11,43.7,42.2,41.0,30.1,26.9,19.6,60,55,42,29.20,29.18,7,4,7,0.00
2013-11-12,29.9,28.4,26.5,18.4,13.9,-6.6,62,56,20,29.49,29.33,10,4,10,0.00
2013-11-14,38.9,36.4,34.6,22.0,21.5,20.8,58,54,50,29.34,29.33,2,1,2,0.00
2013-11-15,55.4,43.1,27.7,28.2,23.6,16.4,62,48,28,29.42,29.35,4,1,4,0.00
2013-11-16,56.3,45.9,41.0,36.3,30.9,28.3,60,56,47,29.51,29.48,2,1,2,0.00
2013-11-17,54.5,52.3,49.1,27.7,25.9,24.7,40,36,34,29.37,29.25,5,3,5,0.00
2013-11-18,55.8,54.3,52.9,40.1,37.8,35.6,58,54,49,28.85,28.83,8,6,8,0.00
2013-11-19,35.3,34.2,33.1,22.9,21.4,20.3,60,59,58,29.49,29.41,10,6,10,0.00
2013-11-20,36.2,35.0,32.0,18.9,17.9,16.1,58,50,44,29.87,29.83,4,3,4,0.01
2013-11-22,44.1,39.7,36.4,23.1,-12.0,-15.1,50,2,1,29.37,29.18,12,1,12,0.03
2013-11-23,40.3,36.5,34.7,23.7,16.5,0.4,61,45,23,29.30,29.12,16,8,16,0.00
2013-11-24,20.5,19.3,17.1,8.5,5.6,3.5,63,55,48,29.59,29.53,7,5,7,0.00
2013-11-26,34.6,32.7,31.3,14.2,-12.7,-18.9,43,9,1,29.44,29.17,5,2,5,0.06
2013-11-28,26.6,24.6,20.7,13.9,12.7,10.0,63,60,56,29.55,29.47,13,7,13,0.00
2013-11-29,27.7,21.3,17.1,15.7,8.3,3.6,61,57,53,29.87,29.83,4,1,4,0.00
2013-11-30,26.8,25.8,24.1,14.3,13.6,12.6,61,59,58,29.82,29.58,4,2,4,0.00
2013-12-1,33.8,29.2,23.8,17.6,13.8,11.4,61,53,40,29.58,29.28,3,1,3,0.01
2013-12-2,37.8,34.2,32.2,19.8,0.5,-18.3,48,25,3,29.28,29.14,3,2,3,0.01
2013-12-3,38.9,36.1,32.4,22.9,2.8,-18.1,54,27,1,29.25,29.17,6,3,6,0.00
2013-12-8,27.9,27.6,27.4,15.8,15.5,14.9,60,60,59,29.69,29.63,11,4,11,0.00
2013-12-9,36.4,32.2,25.9,22.0,14.3,-8.6,59,49,21,29.63,29.21,13,5,13,0.00
2013-12-10,34.6,26.5,22.7,21.5,14.3,9.5,62,59,54,29.22,29.12,18,6,18,0.00
2013-12-11,27.7,25.8,22.7,15.7,13.9,10.4,62,60,52,29.43,29.22,17,6,17,0.00
2013-12-12,23.8,15.8,7.7,12.6,5.1,-1.3,66,62,59,29.57,29.27,9,3,9,0.01
2013-12-13,19.8,19.8,19.8,8.1,8.1,8.1,60,60,60,29.27,29.27,7,7,7,0.00
2013-12-14,11.9,10.9,9.4,1.6,0.4,-0.9,65,62,56,29.72,29.44,8,2,8,0.00
2013-12-15,25.6,23.8,23.2,11.8,7.5,5.0,58,49,44,29.01,28.98,6,2,6,0.00
2013-12-16,24.5,13.5,2.2,11.8,2.8,-6.4,68,62,44,29.48,29.00,11,3,11,0.00
2013-12-17,7.6,2.5,-2.7,-3.0,-6.3,-10.4,69,66,62,29.48,29.31,9,4,9,0.00
2013-12-20,39.6,37.3,7.6,23.7,-6.6,-14.7,62,13,1,29.31,29.13,5,1,5,0.01
2013-12-21,51.8,49.3,43.6,-3.1,-5.1,-9.5,1,1,1,29.09,29.07,9,2,13,0.00
2013-12-22,45.5,44.3,43.0,27.5,22.3,11.9,49,42,28,29.25,29.18,10,3,10,0.00
2013-12-23,43.0,39.5,29.2,19.5,-4.4,-11.6,66,15,1,29.48,29.23,9,3,9,0.00
2013-12-24,29.2,26.9,25.9,19.5,17.4,16.0,68,67,66,29.50,29.40,10,4,10,0.00
2013-12-25,26.5,17.3,14.4,16.9,7.0,5.4,68,64,61,29.79,29.43,4,1,4,0.00
2013-12-27,32.2,30.9,18.4,21.6,19.7,7.1,65,63,58,29.72,29.45,12,3,12,0.00
2013-12-29,34.2,31.4,28.4,15.9,5.3,-5.9,59,34,21,29.46,29.07,5,1,6,0.00
2013-12-30,33.8,15.7,10.8,15.1,6.9,2.9,71,68,46,29.49,29.07,19,4,19,0.00
2013-12-31,16.9,13.4,10.6,5.2,3.5,2.7,71,64,54,29.47,29.40,12,2,13,0.00
2014-1-1,20.3,16.8,14.6,10.7,7.5,5.1,69,67,61,29.64,29.45,10,1,12,0.00
2014-1-2,14.8,8.9,7.7,6.1,1.1,0.0,71,70,68,29.59,29.23,8,2,8,0.00